www.pogodaiklimat.ru
Время
(UTC), дата
13 14.11
14 14.11
15 14.11
16 14.11
17 14.11
18 14.11
19 14.11
20 14.11
21 14.11
22 14.11
23 14.11
00 15.11
01 15.11
02 15.11
03 15.11
04 15.11
05 15.11
06 15.11
07 15.11
08 15.11
09 15.11
10 15.11
11 15.11
12 15.11
13 15.11
14 15.11
15 15.11
16 15.11
17 15.11
18 15.11
19 15.11
20 15.11
21 15.11
22 15.11
23 15.11
00 16.11
01 16.11
02 16.11
03 16.11
04 16.11
05 16.11
06 16.11
07 16.11
08 16.11
09 16.11
10 16.11
11 16.11
12 16.11
13 16.11
14 16.11
15 16.11
16 16.11
17 16.11
18 16.11
19 16.11
20 16.11
21 16.11
22 16.11
23 16.11
00 17.11
01 17.11
02 17.11
03 17.11
04 17.11
05 17.11
06 17.11
07 17.11
08 17.11
09 17.11
10 17.11
11 17.11
12 17.11
13 17.11
14 17.11
15 17.11
16 17.11
17 17.11
18 17.11
19 17.11
20 17.11
21 17.11
22 17.11
23 17.11
00 18.11
01 18.11
02 18.11
03 18.11
04 18.11
05 18.11
06 18.11
07 18.11
08 18.11
09 18.11
10 18.11
11 18.11
12 18.11
13 18.11
14 18.11
15 18.11
16 18.11
17 18.11
18 18.11
19 18.11
20 18.11
21 18.11
22 18.11
23 18.11
00 19.11
01 19.11
02 19.11
03 19.11
04 19.11
05 19.11
06 19.11
07 19.11
08 19.11
09 19.11
10 19.11
11 19.11
12 19.11
13 19.11
14 19.11
15 19.11
16 19.11
17 19.11
18 19.11
19 19.11
20 19.11
21 19.11
22 19.11
23 19.11
00 20.11
01 20.11
02 20.11
03 20.11
04 20.11
05 20.11
06 20.11
07 20.11
08 20.11
09 20.11
10 20.11
11 20.11
12 20.11
13 20.11
14 20.11
15 20.11
16 20.11
17 20.11
18 20.11
19 20.11
20 20.11
21 20.11
22 20.11
23 20.11
00 21.11
01 21.11
02 21.11
03 21.11
05 21.11
06 21.11
07 21.11
08 21.11
09 21.11
10 21.11
11 21.11
12 21.11
Ветер
(напр.,м/с)
Видим. Явления Облачность Т
(С)
Тd
(С)
f
(%)
Тe
(С)
Тes
(С)
Комфортность P
(гПа)
Po
(гПа)
Тmin
(С)
Tmax
(С)
R
(мм)
R24
(мм)
S
(см)
ЮВ 4 60 км 9/1 600 м
[Cu hum Ac As]
+8.6 +1.8 62 +6 +6 тепло 1002.7 990.7
ЮВ 6 60 км 10/4 1500 м
[Sc Ac lent Cs]
+8.7 -0.2 54 +5 +5 тепло 1002.2 990.2
ЮВ 4 60 км 10/5 1500 м
[Sc Ac As]
+8.4 +0.5 58 +6 +6 по сезону 1002.9 990.9
В 4 60 км 10/4 1500 м
[Sc Ac As]
+7.9 +0.2 58 +5 +5 по сезону 1002.7 990.7
В 1 60 км 10/4 2000 м
[Sc Ac As]
+6.6 +0.9 67 +6 +6 тепло 1003.4 991.3
В 2 50 км 9/0
[Ac As Cs]
+6.1 +0.9 69 +4 +4 по сезону 1003.5 991.4 +5.1 +9.2
ЮВ 2-3
{4}
50 км 10/0
[Ac trans]
+5.3 +0.7 72 +3 +3 по сезону 1003.7 991.6
С 1 50 км 10/0
[Ac trans Cs]
+4.1 +0.6 78 +3 +3 тепло 1003.5 991.3
СВ 1 45 км 9/0
[Cs]
+2.1 +0.2 87 0 0 прохладно 1003.4 991.1
В 1-1
{2}
40 км 10/0
[Cs]
+1.3 +0.1 92 -1 -1 по сезону 1003.0 990.7
В 1 40 км 10/0
[Ac As]
+0.6 -0.5 92 -1 -1 по сезону 1002.8 990.5
С 1 40 км 10/0
[Ac As Ci sp]
+2.5 +0.6 87 +1 +1 по сезону 1002.0 989.8
В 1 40 км 9/0
[Ac As Ci sp]
+1.6 +0.3 91 -0 -0 по сезону 1001.9 989.6
ЮВ 1 40 км 9/0
[Ac As]
+1.4 +0.5 94 -1 -1 по сезону 1001.0 988.7
В 3 40 км 9/0
[Ac trans Cs]
+2.1 -0.4 84 -2 -2 прохладно 1000.1 987.9
СВ 2 40 км 10/0
[Ac As]
+2.9 0.0 81 -0 -0 по сезону 999.7 987.5
С 2 35 км 10/0
[Ac As Cs]
+3.5 +0.1 78 +1 +1 по сезону 998.9 986.7
С 1 30 км 10/0
[Ac As]
+2.2 -0.1 85 +1 +1 по сезону 998.5 986.3 -0.4 +6.2
С 2 25 км 10/0
[Ac As]
+2.0 -0.2 85 -1 -1 по сезону 998.6 986.4
С 3 22 км 9/0
[Ac As Cs]
+2.1 -0.1 85 -2 -2 по сезону 998.4 986.2
С 2 24 км 9/0
[Ac As Cs]
+3.1 +0.3 82 0 +1 прохладно 998.9 986.7
Ю 1 25 км 10/0
[Ac As Cs]
+4.2 +0.6 77 +3 +4 по сезону 1000.1 988.0
В 1 25 км 9/0
[Ac As Cs]
+5.0 +0.8 74 +4 +5 тепло 1000.0 987.9
В 2 25 км 10/1 2000 м
[Sc Ac As]
+5.8 +1.4 73 +4 +4 по сезону 1000.4 988.3
ЮВ 4 35 км 10/1 870 м
[Cu hum Ac As]
+6.7 +1.6 70 +3 +4 по сезону 1000.8 988.8
ЮВ 3 30 км 10/1 870 м
[Cu hum As trans Cs]
+6.9 +1.7 69 +4 +5 по сезону 1001.1 989.1
Ю 3 35 км 10/9 930 м
[Sc]
+7.0 +1.9 70 +4 +4 по сезону 1001.7 989.7
Ю 2-4
{7}
35 км 9/9 840 м
[Sc]
+6.2 +2.1 75 +4 +4 по сезону 1002.6 990.5
ЮВ 3-3
{4}
30 км 9/9 800 м
[Sc]
+5.3 +1.5 76 +2 +2 по сезону 1003.1 991.0
ЮВ 4 30 км 10/3 600 м
[Sc As op]
+4.9 +1.5 79 +1 +1 прохладно 1003.7 991.6 +1.8 +7.2
ЮВ 2-3
{4}
40 км 10/0
[As trans]
+4.7 +1.3 79 +2 +2 по сезону 1003.9 991.7
ЮВ 3 35 км 10/3 800 м
[Sc As trans]
+4.6 +1.4 80 +1 +1 по сезону 1004.7 992.5
В 3 35 км 10/5 900 м
[Sc As trans]
+4.5 +1.7 82 +1 +1 прохладно 1005.3 993.1
ЮВ 3-4
{4}
35 км 10/9 840 м
[Sc]
+4.5 +1.7 82 +1 +1 по сезону 1005.6 993.4
ЮВ 3-3
{3}
35 км 10/9 800 м
[Sc]
+4.4 +1.8 83 +1 +1 по сезону 1006.1 993.9
ЮВ 2 35 км 10/6 600 м
[Sc As trans]
+3.6 +1.5 86 +1 +1 по сезону 1006.2 994.0
ЮВ 2 30 км 10/4 800 м
[Sc Ac As]
+3.4 +1.6 88 0 0 по сезону 1005.9 993.7
В 1 30 км 10/0
[Ac As]
+3.0 +1.6 91 +1 +1 тепло 1006.0 993.7
В 2 25 км 10/0
[As trans]
+2.2 +1.3 94 -1 -1 прохладно 1005.8 993.5
Ю 2-2
{3}
20 км 10/0
[As trans]
+1.4 +0.5 94 -2 -2 по сезону 1006.1 993.8
В 2 20 км 10/0
[As trans Cs]
+2.0 +1.0 93 -1 -1 по сезону 1006.5 994.2
ЮВ 2 25 км местами туман поземный 8/0
[Ci sp]
-0.1 -0.7 96 -4 -4 холодно 1007.2 994.8 -0.1 +5.4
В 2-2
{2}
30 км 6/0
[Ci sp]
+1.6 +0.8 94 -2 -2 по сезону 1008.0 995.7
В 2 45 км 5/0
[Ac trans Ci sp]
+1.9 -0.2 86 -1 -1 по сезону 1008.6 996.3
ЮВ 2 45 км 5/0
[Ac trans Ci sp]
+4.6 +1.3 79 +2 +3 по сезону 1008.9 996.7
Ю 3-4
{5}
50 км 3/0
[Ac trans Ci sp]
+5.8 +1.2 72 +3 +4 по сезону 1009.4 997.2
Ю 3-4
{4}
50 км 5/0
[Ci sp]
+5.2 +1.6 78 +2 +4 по сезону 1009.5 997.3
ЮВ 3 50 км 8/0
[Ac trans Ci sp]
+6.2 +1.1 70 +3 +4 по сезону 1009.9 997.7
ЮВ 3-4
{6}
60 км 5/1 900 м
[Cu med, cong Ac lent Ci fib]
+7.5 +1.2 64 +5 +6 по сезону 1009.7 997.6
ЮВ 2-4
{4}
60 км 4/0
[Ac As Ci fib]
+7.9 +1.6 64 +6 +7 тепло 1009.5 997.4
ЮВ 3 60 км 4/1 900 м
[Cu hum Ac lent Ci fib]
+7.6 +1.7 66 +5 +5 по сезону 1009.8 997.7
Ю 2-3
{4}
60 км 3/0
[Ac trans Ci sp]
+5.8 +1.5 74 +4 +4 по сезону 1010.4 998.2
ЮВ 3-4
{4}
45 км 1/0
[Ac trans Ci sp]
+5.4 +1.6 76 +2 +2 по сезону 1010.8 998.6
ЮВ 4 40 км 1/0
[Ci sp]
+4.4 +1.2 80 0 0 прохладно 1012.0 999.7 -0.9 +8.1
ЮВ 4-5
{5}
40 км 3/0
[Ci fib]
+5.1 +1.2 76 +1 +1 по сезону 1012.0 999.8
ЮВ 4-4
{4}
35 км ясно +3.8 +1.0 82 -1 -1 по сезону 1012.7 1000.4
ЮВ 2-2
{5}
30 км ясно +3.5 +1.1 84 +1 +1 по сезону 1012.9 1000.6
ЮВ 4-4
{5}
20 км ясно +3.1 +1.1 87 -2 -2 по сезону 1012.2 999.9
В 3-4
{5}
15 км ясно +2.8 +1.1 89 -1 -1 по сезону 1013.0 1000.6
ЮВ 3 10 км ясно +2.6 +1.1 90 -2 -2 прохладно 1013.6 1001.2
В 1-2
{5}
10 км ясно +2.4 +0.9 90 +1 +1 по сезону 1013.3 1000.9
ЮВ 2-2
{2}
8000 м ясно +1.9 +0.6 91 -2 -2 по сезону 1013.1 1000.7
ЮВ 2-3
{5}
6000 м дымка ясно +1.4 +0.2 92 -2 -2 прохладно 1012.9 1000.5
ЮВ 3-4
{4}
6000 м дымка ясно +0.2 0.0 99 -5 -5 прохладно 1012.8 1000.3
Ю 1-2
{3}
5000 м дымка ясно -1.8 -2.5 95 -4 -4 по сезону 1012.9 1000.3
ЮВ 2 9000 м 6/0
[Ci fib]
+0.2 -0.3 96 -4 -4 холодно 1013.0 1000.5 -2.3 +5.1
В 1-2
{3}
9000 м 9/0
[Ci fib]
-0.8 -1.5 95 -3 -3 по сезону 1012.8 1000.3
В 1-2
{2}
9000 м 8/0
[Ci fib]
+0.2 -0.3 96 -2 -2 по сезону 1012.8 1000.3
ЮВ 1 500 м туман 8/0
[Ci fib]
+0.7 +0.3 97 -1 -1 прохладно 1012.7 1000.3
штиль 0-1
{1}
600 м туман 10/8 60 м
[St]
+1.5 +1.0 96 0 0 по сезону 1012.2 999.8
СЗ 1 6000 м в посл. час туман 10/3 60 м
[St Ac trans]
+2.0 +1.0 93 0 +1 по сезону 1011.6 999.2
С 2 12 км {туман} 10/1 60 м
[Cu hum Ac trans]
+2.9 +1.5 90 -0 +1 прохладно 1010.7 998.4
З 1 7000 м дымка 10/1 60 м
[St Ac As]
+3.5 +2.3 92 +2 +2 по сезону 1010.4 998.1
СЗ 2 8000 м 10/4 1200 м
[Sc Ac As]
+4.0 +2.7 91 +1 +1 по сезону 1009.1 996.9
СЗ 2 10 км 10/4 1200 м
[Sc]
+4.1 +2.7 91 +1 +1 прохладно 1008.4 996.2
СЗ 2 9000 м слаб. дождь 10/5 840 м
[Sc Ac As]
+4.1 +3.0 93 +1 +1 по сезону 1008.1 995.9
С 5 9000 м слаб. дождь 10/8 960 м
[Sc Ac As]
+4.2 +3.2 93 -1 -1 по сезону 1007.5 995.3
СЗ 5 7000 м дождь 10/5 50 м
[Cu Sc As op]
+3.9 +3.4 97 -1 -1 прохладно 1007.4 995.2 -1.2 +4.4 4
СЗ 6 4000 м слаб. дождь 10/4 150 м
[St As op]
+3.7 +3.2 97 -2 -2 по сезону 1006.8 994.6
СЗ 6-8
{9}
3500 м слаб. дождь 10/9 120 м
[St]
+3.7 +3.2 97 -2 -2 по сезону 1007.0 994.8
С 6 4000 м слаб. дождь 10/6 150 м
[St As op]
+3.7 +3.2 97 -2 -2 прохладно 1006.3 994.1 9
С 4 4000 м слаб. дождь 10/9 150 м
[St]
+3.4 +2.7 95 -1 -1 по сезону 1005.9 993.7
СЗ 4 4500 м слаб. морось {дождь} 10/9 90 м
[St]
+3.3 +2.8 97 -2 -2 по сезону 1005.8 993.6
СЗ 4 4000 м слаб. морось {дождь} 10/9 50 м
[St]
+3.4 +2.8 96 -1 -1 по сезону 1005.7 993.5 10
СЗ 3 6000 м слаб. морось 10/9 90 м
[St]
+3.4 +2.9 97 -1 -1 по сезону 1005.7 993.5
СЗ 4 4000 м слаб. морось 10/9 90 м
[St]
+3.5 +3.0 97 -1 -1 тепло 1005.6 993.4
СЗ 3 8000 м слаб. морось 10/10 90 м
[St]
+3.5 +2.8 95 -1 -1 по сезону 1005.7 993.5 0.0
СЗ 3-5
{5}
8000 м слаб. морось 10/10 120 м
[St]
+3.5 +2.9 96 -1 -1 по сезону 1005.6 993.4
СЗ 3-4
{5}
3300 м слаб. морось 10/10 90 м
[St]
+3.7 +3.2 97 -0 -0 тепло 1005.8 993.6
СЗ 1 3000 м слаб. морось 10/10 50 м
[St]
+3.9 +3.6 98 +2 +2 по сезону 1006.5 994.3 +3.3 +3.9 10
З 2 2200 м слаб. морось {дождь} 10/10 60 м
[St]
+4.1 +3.8 98 +1 +1 по сезону 1006.6 994.4
СЗ 3 2000 м слаб. морось {дождь} 10/10 60 м
[St]
+4.3 +4.0 98 0 0 тепло 1007.1 994.9
ЮЗ 1 2200 м слаб. морось {дождь} 10/10 60 м
[St]
+4.4 +4.1 98 +3 +3 по сезону 1007.3 995.1 0.5
ЮЗ 1 2700 м дождь {морось} 10/10 30 м
[St]
+4.6 +4.3 98 +3 +3 по сезону 1007.4 995.2
ЮЗ 2 2800 м слаб. морось {дождь} 10/10 60 м
[St]
+4.7 +4.2 97 +2 +2 тепло 1007.4 995.2
Ю 2 5000 м дождь {морось} 10/10 60 м
[St]
+4.8 +4.4 97 +2 +2 по сезону 1007.4 995.2 0.8
ЮЗ 2 7000 м дождь 10/10 60 м
[St]
+4.8 +4.4 97 +2 +2 по сезону 1007.5 995.3
ЮЗ 2 7000 м дождь 10/10 60 м
[St]
+4.9 +4.5 97 +2 +2 тепло 1007.7 995.5
ЮЗ 3 14 км слаб. дождь 10/10 120 м
[Cu Sc]
+4.7 +4.0 95 +1 +1 по сезону 1008.2 996.0 3
Ю 4 14 км слаб. дождь 10/10 180 м
[Sc]
+4.1 +3.4 95 -1 -1 по сезону 1008.4 996.2
Ю 4 18 км слаб. дождь 10/10 240 м
[Sc]
+3.7 +3.1 96 -1 -1 по сезону 1008.8 996.5
Ю 4 18 км слаб. дождь 10/10 200 м
[Sc]
+3.7 +3.2 97 -1 -1 прохладно 1009.0 996.7 +3.6 +4.9 5
Ю 3 12 км дождь 10/5 120 м
[St As op]
+3.9 +3.3 96 -0 -0 по сезону 1009.0 996.8
Ю 4 12 км дождь 10/5 120 м
[St As op]
+3.9 +3.4 97 -1 -1 по сезону 1009.3 997.0
ЮЗ 5 13 км дождь 10/6 120 м
[St As op]
+4.7 +4.1 96 -0 -0 по сезону 1009.7 997.5 7
ЮЗ 6 22 км слаб. дождь 10/6 240 м
[Cu Sc As op]
+4.4 +3.4 93 -1 -1 по сезону 1010.4 998.2
З 2 22 км слаб. дождь 10/8 210 м
[Cu Sc As op]
+5.2 +4.7 97 +2 +2 тепло 1011.2 999.0
З 4 17 км слаб. дождь 10/10 100 м
[Cu Sc]
+6.3 +5.5 95 +2 +2 по сезону 1012.1 999.9 11
З 4 18 км в посл. час дождь 10/9 180 м
[Cu Sc]
+6.2 +4.9 91 +2 +2 тепло 1012.8 1000.6
З 3 25 км 10/9 240 м
[Cu Sc]
+5.8 +4.6 92 +2 +2 тепло 1013.3 1001.1
З 3 35 км {дождь} 9/9 210 м
[Cu Sc]
+5.5 +3.5 87 +2 +2 по сезону 1013.7 1001.5 0.0
З 2 35 км 6/4 150 м
[Cu Sc Ac As Ci fib]
+4.0 +2.6 91 +1 +1 по сезону 1014.7 1002.4
ЮЗ 3-4
{4}
35 км 4/4 1500 м
[Sc Ci fib]
+3.5 +2.2 91 -1 -1 тепло 1015.3 1003.0
ЮЗ 2 35 км {дождь} 1/1 2000 м
[Sc]
+3.6 +2.1 90 +1 +1 по сезону 1015.5 1003.2 +2.7 +6.4 11
ЮЗ 1-2
{4}
22 км местами туман поземный 3/3 1500 м
[Sc]
+2.0 +1.1 94 0 0 по сезону 1016.0 1003.6
Ю 3 25 км 5/5 450 м
[Cu Sc]
+1.5 +0.6 94 -3 -3 по сезону 1016.7 1004.2
Ю 2 30 км 9/9 600 м
[Cu Sc]
+3.6 +2.4 92 +1 +1 по сезону 1017.2 1004.8
Ю 3 18 км слаб. дождь 10/9 360 м
[Cu Sc]
+4.3 +2.4 87 +1 +1 по сезону 1017.7 1005.4
З 4 6000 м слаб. дождь 10/9 240 м
[Frnb]
+4.1 +2.5 89 -0 -0 тепло 1018.2 1005.8
ЮЗ 3 8000 м дождь 10/9 240 м
[Frnb]
+3.9 +2.9 93 0 0 по сезону 1018.3 1005.9 4
В 2 18 км слаб. дождь 10/3 240 м
[Cu hum As op]
+4.3 +3.7 96 +1 +2 по сезону 1018.0 1005.7
В 2 25 км слаб. дождь 10/9 420 м
[Cu Sc]
+4.2 +3.4 95 +1 +1 тепло 1018.2 1005.9
В 2 30 км слаб. дождь 9/8 660 м
[Cu Sc Ac trans Ci fib]
+4.2 +3.3 94 +1 +1 по сезону 1018.5 1006.1 2
В 3 15 км в посл. час дождь 9/8 840 м
[Cu Sc Ac trans Ci fib]
+3.6 +3.0 96 -1 -1 по сезону 1018.8 1006.4
В 2 15 км в посл. час дождь 9/6 840 м
[Cu Sc Ac trans Ci fib]
+3.6 +2.9 95 +1 +1 тепло 1019.2 1006.8
В 3 10 км {дождь} 9/9 600 м
[Cu Sc]
+3.3 +2.6 95 -1 -1 по сезону 1019.4 1007.0 +1.4 +4.5 0.0
В 1 12 км 8/8 660 м
[Sc]
+2.2 +1.5 95 0 0 по сезону 1019.9 1007.4
В 3-3
{3}
18 км 9/9 1410 м
[Sc]
+1.8 +1.4 97 -3 -3 по сезону 1020.0 1007.5
В 2 18 км 9/9 1410 м
[Sc]
+2.4 +1.9 96 -1 -1 по сезону 1020.3 1007.8
В 2-3
{3}
18 км 4/4 1410 м
[Sc]
+1.7 +1.0 95 -2 -2 по сезону 1020.4 1007.9
ЮВ 1-2
{3}
6000 м дымка 1/1 1410 м
[Sc]
0.0 -0.3 98 -2 -2 по сезону 1020.7 1008.1
В 2 1700 м туман на расстоянии ясно -0.7 -1.1 97 -5 -5 холодно 1020.7 1008.1
ЮВ 1-2
{2}
9000 м 9/9 660 м
[Sc]
-0.2 -0.7 96 -2 -2 по сезону 1020.5 1007.9
ЮВ 3-3
{3}
14 км 9/9 750 м
[Sc]
+1.1 +0.6 96 -4 -4 по сезону 1020.4 1007.9
Ю 1 14 км 9/9 750 м
[Sc]
+1.3 +1.0 98 -1 -1 прохладно 1020.2 1007.7
ЮВ 1-1
{1}
14 км 9/9 750 м
[Sc]
+1.6 +1.2 97 -0 -0 по сезону 1020.1 1007.6
В 1-3
{3}
12 км 9/9 800 м
[Sc]
+1.8 +1.4 97 -0 -0 по сезону 1019.9 1007.4
Ю 1 4000 м дымка 4/3 600 м
[Sc Ac trans]
+0.3 -0.3 96 -2 -2 прохладно 1019.9 1007.3 -1.1 +3.3
В 3-3
{3}
2500 м туман на расстоянии 4/3 210 м
[St Ac trans]
+0.5 +0.2 98 -4 -4 прохладно 1019.8 1007.3
В 3-3
{4}
5000 м дымка 9/9 1000 м
[Sc]
+1.3 +0.5 94 -3 -3 по сезону 1019.8 1007.3
ЮВ 1 5000 м дымка 8/8 1050 м
[Sc]
+2.5 +1.3 92 +1 +1 прохладно 1019.4 1007.0
В 3 6000 м дымка 5/5 180 м
[Cu Sc]
+3.2 +1.4 88 -1 -0 по сезону 1018.9 1006.5
В 2-3
{4}
12 км 4/4 180 м
[Cu hum]
+4.2 +1.5 83 +1 +3 по сезону 1018.3 1005.9
В 3 20 км 4/4 400 м
[Cu med, cong]
+5.7 +2.2 78 +3 +4 по сезону 1017.7 1005.4
ЮВ 4 25 км 6/6 450 м
[Cu Sc]
+5.3 +1.3 75 +1 +2 по сезону 1017.4 1005.1
ЮВ 5 25 км 8/8 600 м
[Cu Sc]
+5.6 +0.3 69 +1 +2 по сезону 1016.9 1004.6
В 3 40 км 9/9 660 м
[Cu Sc]
+5.0 +0.7 74 +2 +2 по сезону 1016.5 1004.2
В 3 45 км 5/5 660 м
[Cu Sc]
+3.7 -0.5 74 0 0 по сезону 1016.2 1003.8
В 2-2
{4}
35 км 9/9 800 м
[Sc]
+3.6 +0.2 78 +1 +1 по сезону 1015.7 1003.3
ЮВ 2 35 км 9/9 600 м
[Sc]
+3.8 +0.2 77 +1 +1 по сезону 1015.6 1003.3 -1.3 +6.3
В 3-4
{4}
30 км 9/9 900 м
[Sc]
+2.8 +0.3 84 -1 -1 по сезону 1015.7 1003.3
В 3-5
{5}
30 км 1/1 900 м
[Sc]
+2.1 -0.1 85 -2 -2 по сезону 1015.4 1003.0
В 3-4
{5}
25 км ясно +1.3 -0.6 87 -3 -3 холодно 1014.9 1002.5
В 3-3
{4}
20 км ясно +1.1 -0.7 88 -3 -3 прохладно 1014.6 1002.1
ЮВ 2-3
{3}
20 км ясно +0.9 -0.9 88 -3 -3 по сезону 1014.3 1001.8
ЮВ 2 20 км ясно -1.0 -1.5 96 -5 -5 холодно 1013.8 1001.3
В 1-2
{3}
20 км 3/0
[Ci fib]
-1.1 -1.8 95 -3 -3 по сезону 1013.3 1000.8
Ю 2-2
{2}
15 км 3/0
[Ci fib]
-1.7 -2.5 94 -6 -6 по сезону 1012.9 1000.3
ЮВ 2 15 км 6/0
[Ci]
-1.2 -1.7 96 -5 -5 холодно 1012.4 999.9
В 1 13 км 8/0
[Ci fib]
-0.7 -1.5 94 -3 -3 по сезону 1011.9 999.4
ЮВ 2 13 км 8/0
[Ci fib]
-1.0 -1.7 95 -5 -5 холодно 1011.9 999.4 -3.3 +3.7
ЮВ 2-4
{5}
9000 м 8/0
[Ci fib]
-1.0 -1.8 94 -5 -5 прохладно 1011.4 998.9
В 3-4
{4}
8000 м 9/0
[Ci sp]
-0.6 -1.5 94 -6 -5 по сезону 1011.1 998.6
В 3 10 км 9/0
[As trans Ci sp]
+0.6 -0.6 92 -4 -4 холодно 1010.7 998.3
ЮВ 4 12 км 9/0
[As trans Ci sp]
+2.0 +0.3 88 -3 -2 прохладно 1010.3 997.9
ЮВ 4 13 км 9/0
[As trans Ci sp]
+4.1 +0.9 80 -0 +1 по сезону 1009.5 997.2
ЮВ 5 13 км 9/0
[As trans Ci sp]
+5.7 +2.0 77 +1 +2 прохладно 1008.8 996.6
Местоположение метеостанции Кёльн (Германия): широта 50.87 долгота 7.17 высота над уровнем моря 91 м.
В архиве по умолчанию представлена погода в Кёльне за последнюю неделю. Архивные данные за месяц целиком и за предыдущие месяцы, начиная с января 2011 года, Вы можете получить, выбрав интересующий диапазон дат из раскрывающегося списка и нажав кнопку "Найти!".
*Определитесь, кто Вы:
Внимание! Время в таблицах - всемирное. Для получения местного времени необходимо прибавить поправку, которая равна 1 ч.
Смотрите также архив погоды в соседних городах и на ближайших метеорологических станциях:
Партнеры нашего сайта:      
Пояснения к столбцам:
  • Ветер - указаны скорость ветра в м/с - средняя за 10 мин, порывы в срок и между сроками (в фигурных скобках) и направление, откуда дует ветер: С - северный,
  • СВ - северо-восточный, В - восточный, ЮВ - юго-восточный, Ю - южный, ЮЗ - юго-западный, З - западный, СЗ - северо-западный.
  • Видимость - горизонтальная дальность видимости в метрах или километрах. При видимости от 1 до 10 км при отсутствии осадков обычно наблюдается дымка, при ухудшении видимости до 1 км и менее - туман. В сухую погоду видимость может ухудшаться дымом, пылью или мглою.
  • Явления - указаны атмосферные явления, наблюдавшиеся в срок или в последний час перед сроком; фигурными скобками обозначены явления, наблюдавшиеся между сроками (за 1-3 часа до срока); квадратными скобками обозначены град или гололедные отложения с указанием их диаметра в мм.
  • Облачность - указаны через наклонную черту общая и нижняя облачность в баллах и высота нижней границы облаков в метрах; квадратными скобками обозначены формы облаков: Ci - перистые, Cs - перисто-слоистые, Cc - перисто-кучевые, Ac - высококучевые, As - высокослоистые, Sc - слоисто-кучевые, Ns - слоисто-дождевые, Cu - кучевые, Cb - кучево-дождевые. Подробнее классификацию облаков см. в Атласе облаков (PDF).
  • T - Температура воздуха - температура, измеренная на высоте 2 м над землей.
  • Td - Температура точки росы - температура, при понижении до которой содержащийся в воздухе водяной пар достигнет насыщения.
  • f - Относительная влажность воздуха - влажноcть воздуха, измеренная на высоте 2 м над землей.
  • Te - Эффективная температура - температура, которую ощущает одетый по сезону человек в тени. Характеристика душности погоды. При расчете учитывается влияние влажности воздуха и скорости ветра на теплоощущения человека.
  • Tes - Эффективная температура на солнце - температура, которую ощущает человек, с поправкой на солнечный нагрев. Характеристика знойности погоды. Зависит от высоты солнца над горизонтом, облачности и скорости ветра. Ночью, в пасмурную погоду, а также при ветре 12 м/с и более поправка равна нулю.
  • P - Атмосферное давление - приведенное к уровню моря атмосферное давление.
  • Po - Атмосферное давление - измеренное на уровне метеостанции атмосферное давление.
  • Tmin - Минимальная температура - минимум температуры воздуха на высоте 2 м над землей.
  • Tmax - Максимальная температура - максимум температуры воздуха на высоте 2 м над землей.
  • R - Количество осадков - Количество выпавших осадков за период времени, мм. При наведении курсора мыши на число - период времени, за который выпало указанное количество осадков.
  • R24 - Количество осадков - Количество выпавших осадков за 24 часа, мм.
  • S - Снежный покров - Высота снежного покрова, см. При наведении курсора мыши на число - состояние снежного покрова и степень покрытия местности в баллах.